{"data":{"norad_id":40545,"intl_designator":"2015-017B","name":"GSAT0204 (GALILEO 8)","alt_names":[],"object_type":"PAYLOAD","status":"ACTIVE","operator":null,"country":"ESA","launch_date":"2015-03-27","launch_site_code":"FRGUI","launch_vehicle":null,"mission":null,"orbit_class":"UNKNOWN","rcs_meters":9.4592,"size_class":null,"mass_kg":null,"dimensions":null,"purposes":["earth_obs","nav"],"wikipedia_slug":null,"has_3d_model":false,"image_url":null,"decayed_at":null,"tle_current":{"epoch":"2026-09-15T19:15:45.218880Z","epoch_age_seconds":420166,"freshness":"STALE","line1":"1 40545U 15017B   26258.80260670 -.00000102  00000+0  00000+0 0  9996","line2":"2 40545  56.7566 339.1450 0004699 240.9831 119.0222  1.70476021 33792","mean_motion":1.70476021,"eccentricity":0.0004699,"inclination_deg":56.7566,"raan_deg":339.145,"arg_perigee_deg":240.9831,"mean_anomaly_deg":119.0222,"bstar":0,"rev_number":3379,"period_min":844.69357716884,"perigee_km":23208.040034657,"apogee_km":23235.858195588,"semimajor_km":29600.086115123,"source":"CELESTRAK","updated_at":"2026-09-20T09:00:46.492966Z"}}}